Location: Palombina Nuova
(43.6167°N, 13.4000°E)
Time: 19:49:50
(UTC+00:00)

Cosmos 2173 Rocket - Pass Details

Date: 17 February 2020
Orbit: 944 x 1001 km, 83.0° (Epoch: 30 March)

Event Time Altitude Azimuth Distance (km) Brightness Sun altitude
Rises 04:41:38 0° 351° (N) 3,716 6.9 -15.4°
Reaches altitude 10° 04:44:11 10° 351° (N) 2,756 6.2 -14.9°
Maximum altitude 04:50:31 83° 265° (W) 991 4.0 -13.7°
Drops below altitude 10° 04:56:42 10° 178° (S) 2,698 6.4 -12.6°
Sets 04:59:10 0° 177° (S) 3,632 7.1 -12.2°
